This demonstration page uses our WeatherBlox Daily Observations layout. Learn more.

Left ArrowRight Arrow

40.92945, -100.16068

Hourly Observations for February 20, 2016

Temp ( °F °C ) Dew Point ( °F °C ) Humidity (%) Winds ( mph kmh ) Pressure ( in mb ) Visibility ( mi km ) Precip ( " mm )
12:15 am 00:15 Clear 33 0.7 26 -3.1 76 76 N N/A 30 1016 10 16.0934 N/A
12:35 am 00:35 Clear 34 1.1 26 -3.3 73 73 N N/A 30 1016 10 16.0934 N/A
12:55 am 00:55 Clear 32 undefined 26 -3.5 78 78 N N/A 30 1016 10 16.0934 N/A
1:15 am 01:15 Clear 33 0.4 27 -2.9 79 79 N 5 7 30 1016 10 16.0934 N/A
1:35 am 01:35 Clear 32 0.2 26 -3.2 78 78 N 8 13 30 1016 10 16.0934 N/A
1:55 am 01:55 Clear 32 0.1 25 -3.7 76 76 N 6 9 30.06 1018 10 16.0934 N/A
2:15 am 02:15 Clear 32 -0.1 25 -3.9 76 76 N N/A 30.06 1018 10 16.0934 N/A
2:35 am 02:35 Clear 30 -0.9 25 -4.1 79 79 W 3 6 30.03 1017 10 16.0934 N/A
2:55 am 02:55 Clear 31 -0.6 26 -3.6 80 80 W 6 9 30.03 1017 10 16.0934 N/A
3:15 am 03:15 Clear 31 -0.8 25 -3.8 80 80 WNW 6 9 30.03 1017 10 16.0934 N/A
3:35 am 03:35 Clear 29 -1.5 25 -4.1 83 83 W 5 7 30.03 1017 10 16.0934 N/A
3:55 am 03:55 Clear 31 -0.5 25 -4 77 77 N N/A 30 1016 10 16.0934 N/A
4:15 am 04:15 Clear 30 -1 24 -4.2 79 79 WNW 3 6 30.03 1017 10 16.0934 N/A
4:35 am 04:35 Clear 29 -1.4 25 -4.1 82 82 NW 9 15 30.06 1018 10 16.0934 N/A
4:55 am 04:55 Clear 31 -0.8 25 -4.1 79 79 NW 7 11 30.06 1018 10 16.0934 N/A
5:15 am 05:15 Clear 30 -1.2 25 -4.1 81 81 WNW 7 11 30.06 1018 10 16.0934 N/A
5:35 am 05:35 Clear 30 -1.1 25 -3.7 83 83 WNW 7 11 30.06 1018 10 16.0934 N/A
5:55 am 05:55 Clear 30 -0.9 26 -3.6 82 82 WNW 7 11 30.06 1018 10 16.0934 N/A
6:15 am 06:15 Clear 31 -0.6 25 -3.7 80 80 WNW 9 15 30.09 1019 10 16.0934 N/A
6:35 am 06:35 Clear 31 -0.3 25 -3.8 78 78 WNW 9 15 30.09 1019 10 16.0934 N/A
6:55 am 06:55 Clear 31 -0.8 25 -4 79 79 WNW 6 9 30.09 1019 10 16.0934 N/A
7:15 am 07:15 Clear 30 -1.3 25 -4 82 82 W 7 11 30.09 1019 10 16.0934 N/A
7:35 am 07:35 Sunny 30 -1.1 25 -3.9 82 82 W 8 13 30.12 1020 10 16.0934 N/A
7:55 am 07:55 Sunny 31 -0.3 26 -3.6 79 79 WNW 7 11 30.12 1020 10 16.0934 N/A
8:15 am 08:15 Sunny 32 0.2 26 -3.4 77 77 WNW 5 7 30.12 1020 10 16.0934 N/A
8:35 am 08:35 Sunny 34 1.1 27 -2.7 76 76 WNW 8 13 30.12 1020 10 16.0934 N/A
8:55 am 08:55 Sunny 36 2.3 29 -1.8 75 75 WNW 8 13 30.12 1020 10 16.0934 N/A
9:15 am 09:15 Sunny 39 3.8 29 -1.5 69 69 WNW 8 13 30.09 1019 10 16.0934 N/A
9:35 am 09:35 Sunny 42 5.4 30 -1 64 64 NW 10 17 30.09 1019 10 16.0934 N/A
9:55 am 09:55 Sunny 44 6.6 30 -1.1 58 58 NNW 8 13 30.09 1019 10 16.0934 N/A
10:15 am 10:15 Sunny 46 7.8 31 -0.8 55 55 NW 8 13 30.06 1018 10 16.0934 N/A
10:35 am 10:35 Sunny 50 10 31 -0.5 48 48 NW 9 15 30.06 1018 10 16.0934 N/A
10:55 am 10:55 Sunny 54 12.2 31 -0.5 42 42 NW 9 15 30.03 1017 10 16.0934 N/A
11:15 am 11:15 Sunny 55 12.5 31 -0.7 40 40 NW 7 11 30 1016 10 16.0934 N/A
11:35 am 11:35 Sunny 57 13.9 31 -0.6 37 37 NNW 7 11 29.97 1015 10 16.0934 N/A
11:55 am 11:55 Sunny 59 15.2 29 -1.6 32 32 N 7 11 29.97 1015 10 16.0934 N/A
12:15 pm 12:15 Sunny 60 15.3 26 -3.4 28 28 NNW 12 19 29.97 1015 10 16.0934 N/A
12:35 pm 12:35 Sunny 62 16.4 27 -2.7 27 27 NNW 12 19 29.97 1015 10 16.0934 N/A
12:55 pm 12:55 Sunny 62 16.5 26 -3.2 26 26 N 9 15 29.91 1013 10 16.0934 N/A
1:15 pm 13:15 Sunny 61 16.2 26 -3.2 26 26 NNW 9 15 29.94 1014 10 16.0934 N/A
1:35 pm 13:35 Sunny 61 16 27 -2.6 28 28 N 8 13 29.94 1014 10 16.0934 N/A
1:55 pm 13:55 Sunny 60 15.8 28 -2.3 29 29 N 6 9 29.94 1014 10 16.0934 N/A
2:15 pm 14:15 Sunny 61 16 27 -2.6 28 28 NNE 8 13 29.94 1014 10 16.0934 N/A
2:35 pm 14:35 Sunny 61 16.2 27 -2.9 27 27 NNE 10 17 29.88 1012 10 16.0934 N/A
2:55 pm 14:55 Sunny 61 16.2 26 -3.2 26 26 N 6 9 29.94 1014 10 16.0934 N/A
3:15 pm 15:15 Sunny 60 15.8 26 -3.4 27 27 NNE 8 13 29.94 1014 10 16.0934 N/A
3:35 pm 15:35 Sunny 60 15.6 26 -3.6 27 27 N 6 9 29.94 1014 10 16.0934 N/A
3:55 pm 15:55 Sunny 60 15.3 26 -3.2 28 28 NE 3 6 29.94 1014 10 16.0934 N/A
4:15 pm 16:15 Sunny 59 15 27 -2.8 29 29 NNE 5 7 29.94 1014 10 16.0934 N/A
4:35 pm 16:35 Sunny 60 15.4 25 -3.7 27 27 NE 6 9 29.94 1014 10 16.0934 N/A
4:55 pm 16:55 Sunny 59 15 27 -3 29 29 NE 3 6 29.94 1014 10 16.0934 N/A
5:15 pm 17:15 Sunny 59 15 27 -2.8 29 29 E 5 7 29.94 1014 10 16.0934 N/A
5:35 pm 17:35 Sunny 57 13.8 28 -2.4 33 33 ESE 5 7 29.94 1014 10 16.0934 N/A
5:55 pm 17:55 Sunny 55 12.9 29 -1.7 37 37 E 5 7 29.94 1014 10 16.0934 N/A
6:15 pm 18:15 Sunny 54 12.1 30 -1 41 41 E 7 11 29.97 1015 7 11.26538 N/A
6:35 pm 18:35 Clear 52 11 31 -0.3 46 46 ESE 7 11 30 1016 10 16.0934 N/A
6:55 pm 18:55 Clear 50 9.9 32 undefined 50 50 E 6 9 30 1016 10 16.0934 N/A
7:15 pm 19:15 Clear 44 6.7 32 0.1 63 63 E 5 7 30.09 1019 10 16.0934 N/A
7:35 pm 19:35 Partly Cloudy 43 5.9 32 undefined 66 66 N N/A 30.09 1019 10 16.0934 N/A
7:55 pm 19:55 Partly Cloudy 38 3.3 31 -0.5 76 76 N N/A 30.12 1020 10 16.0934 N/A
8:15 pm 20:15 Mostly Cloudy 42 5.6 33 0.5 70 70 NW 17 28 30.15 1021 10 16.0934 N/A
8:35 pm 20:35 Mostly Cloudy 48 8.9 34 1.3 59 59 NNW 16 26 30.12 1020 10 16.0934 N/A
8:55 pm 20:55 Partly Cloudy 49 9.5 38 3.3 66 66 NNW 16 26 30.12 1020 10 16.0934 N/A
9:15 pm 21:15 Mostly Cloudy 48 8.9 39 3.8 71 71 NNW 15 24 30.12 1020 10 16.0934 N/A
9:35 pm 21:35 Cloudy 47 8.5 39 3.7 72 72 NNW 8 13 30.12 1020 10 16.0934 N/A
9:55 pm 21:55 Cloudy 47 8.2 39 3.7 74 74 NNW 3 6 30.12 1020 10 16.0934 N/A
10:15 pm 22:15 Cloudy with Light Rain 49 9.6 38 3.4 66 66 WNW 10 17 30.09 1019 10 16.0934 N/A
10:35 pm 22:35 Cloudy 54 12.2 31 -0.4 42 42 SW 21 33 30.03 1017 10 16.0934 N/A
10:55 pm 22:55 Cloudy 50 10.2 36 2.2 58 58 SW 10 17 30.06 1018 10 16.0934 N/A
11:15 pm 23:15 Partly Cloudy 48 9 37 2.6 65 65 SSW 8 13 30.06 1018 10 16.0934 N/A
11:35 pm 23:35 Clear 47 8.5 37 2.5 66 66 SW 8 13 30.06 1018 10 16.0934 N/A
11:55 pm 23:55 Clear 47 8.1 35 1.4 63 63 W 8 13 30.06 1018 10 16.0934 N/A

Powered by AerisWeather